Regional Weather Roundup
Issued by NWS State College, PA

Home | Current Version | Previous Version | Text Only | Print | Product List | Glossary On
Versions: 1 2 3 4 5 6 7 8 9 10 11 12 13 14 15 16 17 18 19 20 21 22 23 24 25 26 27 28 29 30 31 32 33 34 35 36 37 38 39 40 41 42 43 44 45 46 47 48 49 50
600
ASUS41 KCTP 242003
RWRCTP

REGIONAL WEATHER ROUNDUP
NATIONAL WEATHER SERVICE STATE COLLEGE PA
400 PM EDT TUE MAY 24 2016

Note: "fair" indicates few or no clouds below 12,000 feet with no
significant weather and/or obstructions to visibility.

* = STATION THAT DOES NOT REPORT PRECIPITATION /E.G. RAIN...SNOW...ETC/
    THUNDER OR FOG.

PAZ002>004-007>009-013>016-020>023-029>032-242100-
WESTERN PENNSYLVANIA

CITY           SKY/WX    TMP DP  RH WIND       PRES   REMARKS
ERIE           SUNNY     75  47  36 W12       30.06S
MEADVILLE      SUNNY     75  43  31 W8        30.06F
FRANKLIN*      SUNNY     77  45  31 NW7G18    30.08S
NEW CASTLE     FAIR      79  46  31 W10G20    30.06S
BEAVER COUNTY  SUNNY     77  45  31 NW8       30.07S
BUTLER*        SUNNY     77  46  33 W8        30.09S
PITTSBURGH INT MOSUNNY   79  44  28 NW12      30.06S
PITTSBURGH     MOSUNNY   76  45  33 NW9       30.06S
INDIANA*       MOSUNNY   77  48  36 NW8G18    30.09R
LATROBE        PTSUNNY   75  48  38 W12       30.07S
WASHINGTON CO* SUNNY     77  52  41 W8        30.08F
$$

PAZ004>006-010>012-017>019-024>028-033>037-041-042-045-046-049>053-242100-
CENTRAL PENNSYLVANIA

CITY           SKY/WX    TMP DP  RH WIND       PRES   REMARKS
BRADFORD       SUNNY     75  37  25 NW10G18   30.06R
DUBOIS         SUNNY     75  44  33 NW12G20   30.04S
CLEARFIELD     MOSUNNY   78  42  27 NW12G24   30.02S
JOHNSTOWN      MOSUNNY   71  41  33 NW15      30.08S
ALTOONA        MOSUNNY   75  42  30 NW16      30.04S
STATE COLLEGE  MOSUNNY   79  48  34 W16       29.99F
WILLIAMSPORT   MOSUNNY   84  40  21 NW8       29.91F
SELINSGROVE    PTSUNNY   84  45  25 VRB6      29.92F
FT INDIANTOWN  NOT AVBL
CAPITAL CITY   PTSUNNY   84  46  26 W12G22    29.94S
HARRISBURG     PTSUNNY   81  47  30 W12G22    29.93F
YORK           MOSUNNY   81  49  32 W12       29.96S
$$

PAZ038>040-043-044-047-048-054-055-060>062-067>071-242100-
EASTERN PENNSYLVANIA

CITY           SKY/WX    TMP DP  RH WIND       PRES   REMARKS
SCRANTON       MOSUNNY   81  37  20 N16G24    29.91F
MOUNT POCONO   SUNNY     69  35  28 NW12G23   29.94S
ALLENTOWN      SUNNY     83  42  23 NW14      29.89S
QUAKERTOWN*    PTCLDY    82  48  30 NW9G18    29.91R
READING        MOSUNNY   83  44  25 NW18      29.89F
LANCASTER      MOSUNNY   80  50  34 W16G22    29.92F
COATESVILLE    PTCLDY    81  46  30 NW15      29.95S
POTTSTOWN      MOSUNNY   80  47  31 NW10      29.92S
BLUE BELL      PTSUNNY   77  50  38 W7G21     29.89S
DOYLESTOWN     MOSUNNY   77  52  41 CALM      29.89S
WILLOW GROVE   NOT AVBL
NORTH PHILA    PTSUNNY   77  52  41 VRB6      29.91F
PHILADELPHIA   PTSUNNY   80  46  30 W18       29.90F
$$




USA.gov is the U.S. government's official web portal to all federal, state and local government web resources and services.